Weather History for KOLZ - June, 2013

Change the Weather History Date:

Wednesday, June 19, 2013

  Actual Average Record
Temperature  
Mean Temperature 70 °F -  
Max Temperature 82 °F 80 °F 92 °F (1949)
Min Temperature 59 °F 57 °F 44 °F (1970)
Cooling Degree Days 6    
Growing Degree Days 20 (Base 50)    
Moisture  
Dew Point 55 °F    
Average Humidity 58    
Maximum Humidity 82    
Minimum Humidity 39    
Precipitation  
Precipitation 0.00 in - - ()
Sea Level Pressure  
Sea Level Pressure 30.08 in    
Wind  
Wind Speed 10 mph (SSE)    
Max Wind Speed 15 mph    
Max Gust Speed 21 mph    
Visibility 10 miles    
Events      
Averages and records for this station are not official NWS values.
T = Trace of Precipitation, MM = Missing Value Source: NWS Daily Summary

Daily Weather History Graph

Daily Weather History Graph

Search for Another Location

Airport or City:

Trip Planner

Search our weather history database for the weather conditions in past years. The results will help you decide how hot, cold, wet, or windy it might be!

Date:

Astronomy

Jun. 19, 2013 Rise Set
Actual Time 5:29 AM CDT 8:49 PM CDT
Civil Twilight 4:54 AM CDT 9:24 PM CDT
Nautical Twilight 4:09 AM CDT 10:09 PM CDT
Astronomical Twilight 3:13 AM CDT 11:05 PM CDT
Moon 4:38 PM CDT (6/19) 2:19 AM CDT (6/19)
Length of Visible Light 16h 29m
Length of Day
15h 19m
Waxing Gibbous, 80% of the Moon is Illuminated
Jun 19
Waxing Gibbous
Jun 23
Full
Jun 29
Last Quarter
Jul 8
New
Jul 15
First Quarter

Hourly Weather History & Observations

Time (CDT) Temp. Heat Index Dew Point Humidity Pressure Visibility Wind Dir Wind Speed Gust Speed Precip Events Conditions
12:15 AM 64.4 °F - 55.4 °F 73% 30.07 in 10.0 mi ESE 8.1 mph - N/A   Clear
12:35 AM 64.4 °F - 55.4 °F 73% 30.07 in 10.0 mi ESE 6.9 mph - N/A   Clear
12:55 AM 64.4 °F - 55.4 °F 73% 30.07 in 10.0 mi ESE 6.9 mph - N/A   Clear
1:15 AM 62.6 °F - 55.4 °F 77% 30.07 in 10.0 mi SE 8.1 mph - N/A   Clear
1:35 AM 62.6 °F - 55.4 °F 77% 30.08 in 10.0 mi ESE 8.1 mph - N/A   Clear
1:55 AM 62.6 °F - 55.4 °F 77% 30.08 in 10.0 mi ESE 8.1 mph - N/A   Clear
2:15 AM 62.6 °F - 55.4 °F 77% 30.08 in 10.0 mi ESE 9.2 mph - N/A   Clear
2:35 AM 62.6 °F - 55.4 °F 77% 30.08 in 10.0 mi ESE 9.2 mph - N/A   Clear
2:55 AM 60.8 °F - 55.4 °F 82% 30.08 in 10.0 mi ESE 8.1 mph - N/A   Clear
3:35 AM 60.8 °F - 53.6 °F 77% 30.09 in 10.0 mi ESE 9.2 mph - N/A   Clear
3:55 AM 60.8 °F - 53.6 °F 77% 30.09 in 10.0 mi ESE 9.2 mph - N/A   Clear
4:15 AM 59.0 °F - 53.6 °F 82% 30.08 in 10.0 mi ESE 11.5 mph - N/A   Clear
4:35 AM 60.8 °F - 53.6 °F 77% 30.10 in 10.0 mi SE 11.5 mph - N/A   Mostly Cloudy
4:55 AM 59.0 °F - 53.6 °F 82% 30.10 in 10.0 mi SE 13.8 mph - N/A   Overcast
5:15 AM 59.0 °F - 51.8 °F 77% 30.10 in 10.0 mi SE 12.7 mph - N/A   Scattered Clouds
5:35 AM 59.0 °F - 51.8 °F 77% 30.11 in 10.0 mi SE 11.5 mph - N/A   Clear
5:55 AM 59.0 °F - 50.0 °F 72% 30.11 in 10.0 mi SE 11.5 mph - N/A   Partly Cloudy
6:15 AM 59.0 °F - 48.2 °F 67% 30.11 in 10.0 mi SE 11.5 mph - N/A   Partly Cloudy
6:35 AM 59.0 °F - 48.2 °F 67% 30.12 in 10.0 mi SE 10.4 mph - N/A   Partly Cloudy
6:55 AM 60.8 °F - 48.2 °F 63% 30.13 in 10.0 mi SE 12.7 mph - N/A   Mostly Cloudy
7:15 AM 60.8 °F - 48.2 °F 63% 30.13 in 10.0 mi SE 13.8 mph - N/A   Mostly Cloudy
7:35 AM 62.6 °F - 50.0 °F 63% 30.12 in 10.0 mi SE 12.7 mph - N/A   Partly Cloudy
7:55 AM 64.4 °F - 50.0 °F 59% 30.13 in 10.0 mi SSE 11.5 mph - N/A   Clear
8:15 AM 64.4 °F - 50.0 °F 59% 30.13 in 10.0 mi SE 12.7 mph - N/A   Partly Cloudy
8:35 AM 66.2 °F - 50.0 °F 56% 30.14 in 10.0 mi SSE 12.7 mph - N/A   Mostly Cloudy
8:55 AM 66.2 °F - 50.0 °F 56% 30.14 in 10.0 mi SSE 8.1 mph - N/A   Mostly Cloudy
9:15 AM 66.2 °F - 50.0 °F 56% 30.13 in 10.0 mi SSE 11.5 mph - N/A   Scattered Clouds
9:35 AM 68.0 °F - 51.8 °F 56% 30.13 in 10.0 mi SSE 10.4 mph - N/A   Partly Cloudy
9:55 AM 69.8 °F - 51.8 °F 53% 30.12 in 10.0 mi SE 13.8 mph - N/A   Clear
10:15 AM 71.6 °F - 51.8 °F 50% 30.12 in 10.0 mi SSE 12.7 mph - N/A   Clear
10:35 AM 71.6 °F - 51.8 °F 50% 30.12 in 10.0 mi SSE 11.5 mph - N/A   Clear
10:55 AM 73.4 °F - 51.8 °F 47% 30.11 in 10.0 mi SE 11.5 mph - N/A   Clear
11:15 AM 75.2 °F - 53.6 °F 47% 30.11 in 10.0 mi SSE 12.7 mph 18.4 mph N/A   Clear
11:35 AM 75.2 °F - 53.6 °F 47% 30.10 in 10.0 mi SSE 12.7 mph 18.4 mph N/A   Clear
11:55 AM 75.2 °F - 55.4 °F 50% 30.10 in 10.0 mi SE 12.7 mph 18.4 mph N/A   Clear
12:15 PM 77.0 °F - 55.4 °F 47% 30.09 in 10.0 mi SSE 13.8 mph - N/A   Clear
12:35 PM 77.0 °F - 55.4 °F 47% 30.09 in 10.0 mi South 13.8 mph - N/A   Clear
12:55 PM 78.8 °F - 57.2 °F 47% 30.09 in 10.0 mi South 11.5 mph - N/A   Clear
1:15 PM 78.8 °F - 55.4 °F 44% 30.09 in 10.0 mi SSE 11.5 mph - N/A   Clear
1:35 PM 78.8 °F - 57.2 °F 47% 30.08 in 10.0 mi South 10.4 mph - N/A   Clear
1:55 PM 80.6 °F 80.5 °F 55.4 °F 42% 30.08 in 10.0 mi SE 10.4 mph - N/A   Clear
2:15 PM 80.6 °F 80.5 °F 55.4 °F 42% 30.07 in 10.0 mi SSE 10.4 mph 17.3 mph N/A   Clear
2:35 PM 80.6 °F 80.5 °F 55.4 °F 42% 30.07 in 10.0 mi SSE 11.5 mph 19.6 mph N/A   Clear
2:55 PM 80.6 °F 80.8 °F 57.2 °F 45% 30.06 in 10.0 mi South 12.7 mph - N/A   Clear
3:15 PM 80.6 °F 80.8 °F 57.2 °F 45% 30.06 in 10.0 mi South 10.4 mph 19.6 mph N/A   Partly Cloudy
3:35 PM 82.4 °F 81.7 °F 55.4 °F 39% 30.05 in 10.0 mi SE 12.7 mph 20.7 mph N/A   Scattered Clouds
3:55 PM 80.6 °F 80.5 °F 55.4 °F 42% 30.05 in 10.0 mi South 9.2 mph 19.6 mph N/A   Scattered Clouds
4:15 PM 82.4 °F 82.0 °F 57.2 °F 42% 30.05 in 10.0 mi SSE 10.4 mph 17.3 mph N/A   Scattered Clouds
4:35 PM 82.4 °F 81.7 °F 55.4 °F 39% 30.04 in 10.0 mi SSE 11.5 mph 17.3 mph N/A   Partly Cloudy
4:55 PM 80.6 °F 80.5 °F 55.4 °F 42% 30.04 in 10.0 mi South 11.5 mph 17.3 mph N/A   Partly Cloudy
5:15 PM 82.4 °F 82.0 °F 57.2 °F 42% 30.04 in 10.0 mi SSE 12.7 mph - N/A   Mostly Cloudy
5:35 PM 80.6 °F 80.5 °F 55.4 °F 42% 30.03 in 10.0 mi SSE 9.2 mph - N/A   Scattered Clouds
5:55 PM 80.6 °F 80.8 °F 57.2 °F 45% 30.03 in 10.0 mi SSE 11.5 mph - N/A   Partly Cloudy
6:15 PM 80.6 °F 80.8 °F 57.2 °F 45% 30.03 in 10.0 mi SSE 10.4 mph 17.3 mph N/A   Clear
6:35 PM 80.6 °F 80.8 °F 57.2 °F 45% 30.03 in 10.0 mi SSE 15.0 mph - N/A   Clear
6:55 PM 80.6 °F 80.8 °F 57.2 °F 45% 30.03 in 10.0 mi South 12.7 mph - N/A   Clear
7:15 PM 78.8 °F - 57.2 °F 47% 30.03 in 10.0 mi SSE 13.8 mph - N/A   Clear
7:35 PM 78.8 °F - 57.2 °F 47% 30.03 in 10.0 mi SSE 11.5 mph - N/A   Clear
7:55 PM 78.8 °F - 57.2 °F 47% 30.03 in 10.0 mi SSE 9.2 mph - N/A   Clear
8:15 PM 77.0 °F - 57.2 °F 50% 30.03 in 10.0 mi SSE 9.2 mph - N/A   Clear
8:35 PM 77.0 °F - 59.0 °F 54% 30.03 in 10.0 mi South 9.2 mph - N/A   Clear
8:55 PM 75.2 °F - 59.0 °F 57% 30.03 in 10.0 mi SSE 9.2 mph - N/A   Partly Cloudy
9:15 PM 75.2 °F - 59.0 °F 57% 30.04 in 10.0 mi South 8.1 mph - N/A   Clear
9:35 PM 75.2 °F - 59.0 °F 57% 30.05 in 10.0 mi South 8.1 mph - N/A   Clear
9:55 PM 73.4 °F - 59.0 °F 61% 30.05 in 10.0 mi SSE 6.9 mph - N/A   Clear
10:15 PM 71.6 °F - 59.0 °F 64% 30.06 in 10.0 mi SSE 8.1 mph - N/A   Clear
10:35 PM 71.6 °F - 59.0 °F 64% 30.06 in 10.0 mi SSE 9.2 mph - N/A   Clear
10:55 PM 69.8 °F - 59.0 °F 68% 30.06 in 10.0 mi SE 6.9 mph - N/A   Clear
11:15 PM 69.8 °F - 59.0 °F 68% 30.07 in 10.0 mi SSE 5.8 mph - N/A   Clear
11:35 PM 69.8 °F - 59.0 °F 68% 30.07 in 10.0 mi SSE 6.9 mph - N/A   Clear
11:55 PM 68.0 °F - 59.0 °F 73% 30.07 in 10.0 mi SSE 4.6 mph - N/A   Clear